• Processing (Info)

  • MPEC 2014-K67 : 2014 KC46

    The following Minor Planet Electronic Circular may be linked-to from your own Web pages, but must not otherwise be redistributed electronically.

    A form allowing access to any MPEC is at the bottom of this page.


    Read MPEC 2014-K66 Read MPEC 2014-K68


    M.P.E.C. 2014-K67                                Issued 2014 May 28, 14:37 UT
    
         The Minor Planet Electronic Circulars contain information on unusual
             minor planets and routine data on comets.  They are published
       on behalf of Commission 20 of the International Astronomical Union by the
              Minor Planet Center, Smithsonian Astrophysical Observatory,
                              Cambridge, MA 02138, U.S.A.
    
                 Prepared using the Tamkin Foundation Computer Network
    
                                  MPC@CFA.HARVARD.EDU
                URL https://www.minorplanetcenter.net/    ISSN 1523-6714
    
                                       2014 KC46
    
    Observations:
         K14K46C* C2014 05 25.43907 16 33 47.235-27 17 33.40         20.5 gLEK067F51
         K14K46C  C2014 05 25.44898 16 33 46.921-27 17 58.76         20.6 gLEK067F51
         K14K46C  C2014 05 25.45913 16 33 46.604-27 18 24.26         20.6 gLEK067F51
         K14K46C  C2014 05 26.32809 16 33 38.65 -27 57 39.3          20.0 RoEK067926
         K14K46C  C2014 05 26.34417 16 33 38.15 -27 58 25.8          20.0 RoEK067926
         K14K46C  C2014 05 26.35995 16 33 37.60 -27 59 10.7          20.3 RoEK067926
         K14K46C =C2014 05 26.49804 16 33 35.69 -28 05 45.4          19.8  tEK067568
         K14K46C =C2014 05 26.50297 16 33 35.51 -28 05 59.4          19.8  tEK067568
         K14K46C =C2014 05 26.50422 16 33 35.47 -28 06 03.1          19.6  tEK067568
         K14K46C =C2014 05 26.51208 16 33 35.20 -28 06 25.7          19.9  tEK067568
         K14K46C =C2014 05 26.51333 16 33 35.16 -28 06 29.3          19.9  tEK067568
         K14K46C =C2014 05 26.51458 16 33 35.11 -28 06 32.9          19.9  tEK067568
         K14K46C =C2014 05 26.51584 16 33 35.07 -28 06 36.5          19.9  tEK067568
         K14K46C =C2014 05 26.51709 16 33 35.03 -28 06 40.1          19.8  tEK067568
         K14K46C |C2014 05 27.19745 16 33 29.05 -28 41 04.0          19.9 VuEK067807
         K14K46C |C2014 05 27.20039 16 33 28.95 -28 41 13.4          20.0 VuEK067807
         K14K46C |C2014 05 27.20303 16 33 28.84 -28 41 21.7          20.3 VuEK067807
         K14K46C KC2014 05 27.29457 16 33 27.13 -28 47 18.6          20.2 RqEK067H36
         K14K46C KC2014 05 27.31424 16 33 26.38 -28 48 22.8          19.6 RqEK067H36
         K14K46C KC2014 05 27.32998 16 33 25.82 -28 49 15.4          19.8 RqEK067H36
         K14K46C |C2014 05 28.14084 16 33 16.99 -29 36 03.6          19.7 VuEK067807
         K14K46C |C2014 05 28.14377 16 33 16.86 -29 36 14.9          19.9 VuEK067807
         K14K46C |C2014 05 28.14669 16 33 16.75 -29 36 25.8          20.3 VuEK067807
         K14K46C KC2014 05 28.51161 16 33 11.13 -29 59 57.9                qEK067E23
         K14K46C KC2014 05 28.52376 16 33 10.71 -30 00 47.8                qEK067E23
    
    Observer details:
    568 Mauna Kea.  Observers R. J. Wainscoat, A. Draginda.  Measurers P. Veres,
        R. J. Wainscoat.  3.6-m Canada-France-Hawaii Telescope + CCD.
    807 Cerro Tololo.  Observers T. Linder, R. Holmes.  0.41-m f/11
        Ritchey-Chretien + CCD.
    926 Tenagra II Observatory.  Observers M. Schwartz, P. R. Holvorcem.  0.81-m
        f/7 Ritchey-Chretien + CCD.
    E23 Arcadia.  Observer A. Hidas.  0.35-m Schmidt-Cassegrain + CCD.
    F51 Pan-STARRS 1, Haleakala.  Observers N. Primak, A. Schultz, T. Goggia,
        M. Willman.  Measurer PS1 Science Consortium.  1.8-m Ritchey-Chretien
        + CCD.
    H36 Sandlot Observatory, Scranton.  Observer G. Hug.  0.56-m reflector + CCD.
    
    Orbital elements:
    2014 KC46                                                Earth MOID = 0.0105 AU
    Epoch 2014 May 23.0 TT = JDT 2456800.5                  MPC
    M 343.86821              (2000.0)            P               Q
    n   0.26055381     Peri.  278.80157     +0.89051889     +0.45132011
    a   2.4277526      Node    54.38989     -0.38476229     +0.81437469
    e   0.7102866      Incl.    4.04338     -0.24276345     +0.36483423
    P   3.78           H   22.7           G   0.15           U   8
    Residuals in seconds of arc
    140525 F51  0.1+  0.0     140526 568  0.0   0.2-    140527 H36  0.7-  0.9+
    140525 F51  0.0   0.1-    140526 568  0.0   0.2-    140527 H36  0.8-  0.1-
    140525 F51  0.1+  0.2+    140526 568  0.1-  0.2-    140528 807  0.1-  0.0
    140526 926  0.2-  0.4+    140526 568  0.0   0.1-    140528 807  0.2-  0.1-
    140526 926  0.3+  0.1-    140526 568  0.0   0.1-    140528 807  0.1-  0.2+
    140526 926  0.1-  0.0     140527 807  0.1-  0.3-    140528 E23  0.1+  0.0
    140526 568  0.0   0.3-    140527 807  0.1+  0.1-    140528 E23  1.2+  0.3-
    140526 568  0.1-  0.1-    140527 807  0.1-  0.2+
    140526 568  0.0   0.2-    140527 H36  0.0   0.5+
    
    Ephemeris:
    2014 KC46                a,e,i = 2.43, 0.71, 4                   q = 0.7034
    Date    TT    R. A. (2000) Decl.     Delta      r     Elong.  Phase     V
    2014 04 28    16 27 59.8 -20 27 30   0.5230  1.4794   148.9    20.6    23.2
    ...
    2014 05 13    16 33 11.9 -22 29 59   0.3173  1.3156   161.9    13.8    21.6
    ...
    2014 05 21    16 34 02.6 -24 52 05   0.2182  1.2268   168.8     9.3    20.5
    ...
    2014 05 27    16 33 31.3 -28 30 30   0.1483  1.1600   171.5     7.4    19.4
    2014 05 28    16 33 17.5 -29 27 19   0.1369  1.1489   171.2     7.7    19.2
    2014 05 29    16 33 00.2 -30 33 57   0.1257  1.1377   170.7     8.3    19.1
    ...
    2014 06 04    16 28 09.7 -45 15 09   0.06176 1.0714   156.8    21.9    17.9
    ...
    2014 06 12    04 43 58.6 -22 38 31   0.04497 0.9850    46.6   131.5    21.8
    ...
    2014 06 27    04 40 37.5 +10 10 58   0.2083  0.8375    27.6   145.8    26.6
    
    A. U. Tomatic                (C) Copyright 2014 MPC           M.P.E.C. 2014-K67
    

    Read MPEC 2014-K66 Read MPEC 2014-K68


    MPEC number:

    Enter an MPEC number in one of the following forms:

    • 1997-B01 (the full form)
    • J97B01 (the packed version of the full form)
    • B01 (the abbreviated form)